Regional Weather Roundup
Issued by NWS

Home | Current Version | Previous Version | Text Only | Print | Product List | Glossary On
Versions: 1 2 3 4 5 6 7 8 9 10 11 12 13 14 15 16 17 18 19 20 21 22 23 24 25 26 27
000
ASUS44 KJAN 190610
RWRMS

MISSISSIPPI HOURLY WEATHER ROUNDUP
NATIONAL WEATHER SERVICE JACKSON MS
100 AM CDT SAT AUG 19 2017

NOTE: "FAIR: INDICATES FEW OR NO CLOUDS BELOW 12,000 FEET WITH NO
SIGNIFICANT WEATHER AND/OR OBSTRUCTIONS TO VISIBILITY.

MSZ001>002-007>008-010>013-018>021-025>028-034>036-190700-
NORTHWEST MISSISSIPPI

CITY           SKY/WX    TMP DP  RH WIND       PRES   REMARKS
BATESVILLE     FAIR      72  71  96 CALM      29.99S
CLARKSDALE       N/A     77  77 100 S5        29.99R
CLEVELAND      MOCLDY    79  79 100 CALM      29.99R
GREENWOOD      CLEAR     78  76  93 S3        29.98S
6HR MIN TEMP:  77; 6HR MAX TEMP:  86;

GREENVILLE     CLOUDY    78  71  79 CALM      29.98R
6HR MIN TEMP:  77; 6HR MAX TEMP:  91; 6HR PCP: TRACE;

OXFORD         FAIR      70  68  94 CALM      30.00F
TUNICA           N/A     73  72  94 CALM      29.98F
WINONA         FAIR      75  75 100 CALM      29.99S FOG
$$

MSZ003>006-009-014>017-022>024-029>033-037>039-190700-
NORTHEAST MISSISSIPPI

CITY           SKY/WX    TMP DP  RH WIND       PRES   REMARKS
COLUMBUS AFB   PTCLDY    73  73 100 CALM      29.97S
6HR MIN TEMP:  72; 6HR MAX TEMP:  87;

GOLDN TRIANGLE CLEAR     75  68  78 SW5         N/A
STARKVILLE     FAIR      73  72  94 CALM      29.99F FOG
TUPELO         CLEAR     73  70  90 CALM      29.98S
6HR MIN TEMP:  73; 6HR MAX TEMP:  89;

$$

MSZ040-058-190700-
CENTRAL MISSISSIPPI

CITY           SKY/WX    TMP DP  RH WIND       PRES   REMARKS
JACKSON INTL   PTCLDY    77  75  93 CALM      30.00F
6HR MIN TEMP:  77; 6HR MAX TEMP:  84;

JACKSON HAWKNS MOCLDY    78  76  93 CALM      30.00F
6HR MIN TEMP:  78; 6HR MAX TEMP:  85;

MADISON        MOCLDY    75  73  94 CALM      29.99F
MERIDIAN KEY   CLEAR     77  76  96 CALM      29.99F
6HR MIN TEMP:  77; 6HR MAX TEMP:  86;

MERIDIAN NAS   CLEAR     78  76  93 W5        29.99F
6HR MIN TEMP:  78; 6HR MAX TEMP:  88;

RAYMOND        FAIR      77  75  94 CALM      29.99S
VICKSBURG VKS  CLEAR     81  77  89 CALM      29.97F
$$

MSZ059>079-190700-
SOUTH MISSISSIPPI

CITY           SKY/WX    TMP DP  RH WIND       PRES   REMARKS
COLUMBIA       FAIR      73 N/A N/A CALM      30.03S
HATTIESBURG    CLEAR     76  75  97 CALM      30.01S
6HR MIN TEMP:  75; 6HR MAX TEMP:  83;

LAUREL         FAIR      74  74 100 CALM      30.00S
MCCOMB         CLEAR     76  72  87 CALM      30.02S
6HR MIN TEMP:  74; 6HR MAX TEMP:  86;

NATCHEZ        CLEAR     79  77  94 S5        30.01F
6HR MIN TEMP:  79; 6HR MAX TEMP:  89;

PINE BELT      CLEAR     75  74  96 CALM      30.01F
6HR MIN TEMP:  75; 6HR MAX TEMP:  80;

$$

MSZ080>082-190700-
COASTAL MISSISSIPPI

CITY           SKY/WX    TMP DP  RH WIND       PRES   REMARKS
BILOXI         PTCLDY    78  76  94 CALM      29.99F
6HR MIN TEMP:  77; 6HR MAX TEMP:  79; 6HR PCP:  0.01;

PASCAGOULA     PTCLDY    75  72  90 CALM      29.99F
6HR MIN TEMP:  75; 6HR MAX TEMP:  78; 6HR PCP: TRACE;

GULFPORT       CLOUDY    78  77  96 CALM      29.99F
6HR MIN TEMP:  78; 6HR MAX TEMP:  84;

$$

LAZ007>009-015>016-023>026-190700-
NORTHEAST LOUISIANA

CITY           SKY/WX    TMP DP  RH WIND       PRES   REMARKS
BASTROP        FAIR      78  77  98 CALM      29.99S
TALLULAH/VBURG CLEAR     79  78  97 CALM      29.98F
6HR MIN TEMP:  79; 6HR MAX TEMP:  84; 6HR PCP: TRACE;

VIDALIA          N/A    N/A N/A N/A MISG        N/A
$$




USA.gov is the U.S. government's official web portal to all federal, state and local government web resources and services.